This demonstration page uses our WeatherBlox Daily Observations layout. Learn more.

Left ArrowRight Arrow

Hourly Observations for April 18, 2017

Temp ( °F °C ) Dew Point ( °F °C ) Humidity (%) Winds ( mph kmh ) Pressure ( in mb ) Visibility ( mi km ) Precip ( " mm )
12:15 am 00:15 Mostly Clear 61 16 52 11 72 72 S 17 28 29.91 1013 10 16 0.00 0.00
12:35 am 00:35 Mostly Cloudy 61 16 52 11 72 72 S 18 30 29.91 1013 10 16 0.00 0.00
12:55 am 00:55 Cloudy 61 16 52 11 72 72 S 16 26 29.88 1012 10 16 0.00 0.00
1:15 am 01:15 Partly Cloudy 61 16 52 11 72 72 S 17 28 29.88 1012 10 16 0.00 0.00
1:35 am 01:35 Clear 61 16 52 11 72 72 S 15 24 29.88 1012 10 16 0.00 0.00
1:55 am 01:55 Clear 61 16 54 12 77 77 S 20 31 29.88 1012 10 16 0.00 0.00
2:15 am 02:15 Clear 61 16 54 12 77 77 S 21 33 29.85 1011 10 16 0.00 0.00
2:35 am 02:35 Clear 61 16 54 12 77 77 S 21 33 29.85 1011 10 16 0.00 0.00
2:55 am 02:55 Partly Cloudy 59 15 54 12 82 82 S 21 33 29.85 1011 10 16 0.00 0.00
3:15 am 03:15 Mostly Cloudy 59 15 54 12 82 82 S 20 31 29.85 1011 10 16 0.00 0.00
3:35 am 03:35 Mostly Cloudy 59 15 54 12 82 82 S 22 35 29.83 1010 10 16 0.00 0.00
3:55 am 03:55 Mostly Cloudy 59 15 54 12 82 82 S 24 39 29.83 1010 10 16 0.00 0.00
4:15 am 04:15 Mostly Clear 59 15 54 12 82 82 S 22 35 29.83 1010 10 16 0.00 0.00
4:35 am 04:35 Mostly Cloudy 59 15 54 12 82 82 S 24 39 29.83 1010 10 16 0.00 0.00
4:55 am 04:55 Cloudy 59 15 54 12 82 82 SSW 24 39 29.83 1010 10 16 0.00 0.00
5:15 am 05:15 Cloudy 59 15 54 12 82 82 SSW 23 37 29.83 1010 10 16 0.00 0.00
5:35 am 05:35 Cloudy 59 15 54 12 82 82 SSW 25 41 29.83 1010 10 16 0.00 0.00
5:55 am 05:55 Cloudy 61 16 54 12 77 77 SSW 16 26 29.85 1011 10 16 0.00 0.00
6:15 am 06:15 Cloudy 61 16 54 12 77 77 SSW 17 28 29.85 1011 10 16 0.00 0.00
6:35 am 06:35 Cloudy 61 16 54 12 77 77 SW 13 20 29.88 1012 10 16 0.00 0.00
6:55 am 06:55 Cloudy 61 16 54 12 77 77 SSW 12 19 29.88 1012 10 16 0.00 0.00
7:15 am 07:15 Cloudy 61 16 54 12 77 77 SSW 13 20 29.88 1012 7 11 0.00 0.00
7:35 am 07:35 Cloudy 61 16 55 13 83 83 SSW 13 20 29.88 1012 9 14 0.00 0.00
7:55 am 07:55 Mostly Cloudy 61 16 54 12 77 77 SSW 15 24 29.88 1012 10 16 0.00 0.00
8:15 am 08:15 Cloudy 61 16 54 12 77 77 SSW 12 19 29.88 1012 10 16 0.00 0.00
8:35 am 08:35 Cloudy 61 16 55 13 83 83 SSW 14 22 29.88 1012 10 16 0.00 0.00
8:55 am 08:55 Cloudy 61 16 55 13 83 83 NW 7 11 29.91 1013 10 16 0.00 0.00
9:15 am 09:15 Cloudy 61 16 46 8 59 59 NNW 7 11 29.91 1013 10 16 0.00 0.00
9:35 am 09:35 Mostly Cloudy 63 17 46 8 56 56 N 17 28 29.91 1013 10 16 0.00 0.00
9:55 am 09:55 Cloudy 63 17 43 6 49 49 N 16 26 29.91 1013 10 16 0.00 0.00
10:15 am 10:15 Mostly Sunny 64 18 43 6 46 46 NNE 17 28 29.91 1013 10 16 0.00 0.00
10:35 am 10:35 Sunny 66 19 41 5 40 40 NNE 15 24 29.91 1013 10 16 0.00 0.00
10:55 am 10:55 Sunny 66 19 43 6 43 43 NE 14 22 29.91 1013 10 16 0.00 0.00
11:15 am 11:15 Sunny 68 20 43 6 40 40 NE 14 22 29.88 1012 10 16 0.00 0.00
11:35 am 11:35 Mostly Sunny 68 20 41 5 38 38 NNE 14 22 29.88 1012 10 16 0.00 0.00
11:55 am 11:55 Mostly Sunny 70 21 43 6 38 38 NE 9 15 29.88 1012 10 16 0.00 0.00
12:15 pm 12:15 Sunny 70 21 43 6 38 38 NE 7 11 29.85 1011 10 16 0.00 0.00
12:35 pm 12:35 Sunny 70 21 45 7 40 40 NNE 9 15 29.85 1011 10 16 0.00 0.00
12:55 pm 12:55 Sunny 72 22 45 7 38 38 NE 12 19 29.85 1011 10 16 0.00 0.00
1:15 pm 13:15 Sunny 72 22 45 7 38 38 NE 8 13 29.85 1011 10 16 0.00 0.00
1:35 pm 13:35 Sunny 72 22 43 6 36 36 NE 6 9 29.85 1011 10 16 0.00 0.00
1:55 pm 13:55 Sunny 73 23 45 7 36 36 NW 3 6 29.83 1010 10 16 0.00 0.00
2:15 pm 14:15 Sunny 73 23 45 7 36 36 N 10 17 29.83 1010 10 16 0.00 0.00
2:35 pm 14:35 Sunny 73 23 43 6 33 33 Calm 29.83 1010 10 16 0.00 0.00
2:55 pm 14:55 Sunny 75 24 43 6 31 31 NNE 9 15 29.83 1010 10 16 0.00 0.00
3:15 pm 15:15 Sunny 75 24 43 6 31 31 NNE 7 11 29.83 1010 10 16 0.00 0.00
3:35 pm 15:35 Sunny 75 24 43 6 31 31 N 3 6 29.83 1010 10 16 0.00 0.00
3:55 pm 15:55 Sunny 77 25 43 6 30 30 ENE 5 7 29.80 1009 10 16 0.00 0.00
4:15 pm 16:15 Sunny 77 25 41 5 28 28 N 6 9 29.80 1009 10 16 0.00 0.00
4:35 pm 16:35 Sunny 77 25 43 6 30 30 N 7 11 29.80 1009 10 16 0.00 0.00
4:55 pm 16:55 Sunny 77 25 39 4 26 26 N 8 13 29.80 1009 10 16 0.00 0.00
5:15 pm 17:15 Sunny 77 25 41 5 28 28 NE 3 6 29.80 1009 10 16 0.00 0.00
5:35 pm 17:35 Sunny 75 24 39 4 27 27 NE 9 15 29.80 1009 10 16 0.00 0.00
5:55 pm 17:55 Sunny 77 25 41 5 28 28 NNE 7 11 29.80 1009 10 16 0.00 0.00
6:15 pm 18:15 Sunny 75 24 39 4 27 27 ENE 12 19 29.80 1009 10 16 0.00 0.00
6:35 pm 18:35 Sunny 75 24 39 4 27 27 NNE 12 19 29.80 1009 10 16 0.00 0.00
6:55 pm 18:55 Sunny 73 23 39 4 29 29 NE 10 17 29.80 1009 10 16 0.00 0.00
7:15 pm 19:15 Sunny 73 23 39 4 29 29 NE 12 19 29.80 1009 10 16 0.00 0.00
7:35 pm 19:35 Sunny 72 22 39 4 31 31 NNE 12 19 29.83 1010 10 16 0.00 0.00
7:55 pm 19:55 Mostly Sunny 70 21 39 4 33 33 NE 10 17 29.85 1011 10 16 0.00 0.00
8:15 pm 20:15 Mostly Sunny 68 20 37 3 33 33 NE 10 17 29.85 1011 10 16 0.00 0.00
8:35 pm 20:35 Partly Cloudy 66 19 37 3 35 35 NE 10 17 29.85 1011 7 11 0.00 0.00
8:55 pm 20:55 Mostly Clear 64 18 37 3 37 37 NE 10 17 29.88 1012 10 16 0.00 0.00
9:15 pm 21:15 Mostly Cloudy 64 18 37 3 37 37 NE 10 17 29.88 1012 8 13 0.00 0.00
9:35 pm 21:35 Mostly Cloudy 64 18 37 3 37 37 NE 13 20 29.88 1012 10 16 0.00 0.00
9:55 pm 21:55 Mostly Clear 64 18 37 3 37 37 NE 14 22 29.88 1012 10 16 0.00 0.00
10:15 pm 22:15 Clear 64 18 37 3 37 37 ENE 14 22 29.88 1012 10 16 0.00 0.00
10:35 pm 22:35 Partly Cloudy 63 17 37 3 39 39 ENE 14 22 29.88 1012 10 16 0.00 0.00
10:55 pm 22:55 Mostly Cloudy 63 17 37 3 39 39 ENE 12 19 29.88 1012 10 16 0.00 0.00
11:15 pm 23:15 Cloudy 63 17 39 4 42 42 ENE 14 22 29.88 1012 10 16 0.00 0.00
11:35 pm 23:35 Mostly Cloudy 63 17 39 4 42 42 ENE 13 20 29.88 1012 10 16 0.00 0.00
11:55 pm 23:55 Mostly Cloudy 63 17 39 4 42 42 ENE 13 20 29.88 1012 10 16 0.00 0.00

Powered by AerisWeather